Meteopurmerend
purmerend
Purmerend - Baaienwijk



My webcam  My webcam


Onweer radar Meer informatie blitzortung!


Regen radar Meer informatie rain snow radar


Bezoek onze andere website:

CandyAppleRed WebdesignWebdesign Purmerend Candy Apple Red

MeteopurmerendBlog

Template documentation
and downloads



Het weer levert geen direct gevaar op.    Er zijn geen waarschuwingen afgegeven.

15 daagse weersverwachting Luton (GB)

  • Overzicht
  • Per uur
  • 15 dagen
  • Extra
  • Vergelijk
  • Kaarten
  • Dagkaart
  • Meer »
  • Info
  • Statistieken
  • Directe link
    Temp 6h Neerslag Wind  
 05:21     20:57    Daglengte: 15:36 Vandaag
07:00
15°
 
5
13:00
17°
1.2 mm
6
warningclass
19:00
17°
2.8 mm
7
 05:22     20:55    Daglengte: 15:33 Morgen
01:00
13°
 
6
07:00
13°
 
6
13:00
19°
 
8
19:00
18°
 
6
 05:24     20:54    Daglengte: 15:30 Vrijdag 30 Jul
01:00
14°
 
3
07:00
14°
4.6 mm
4
13:00
15°
7.7 mm
5
19:00
16°
7.7 mm
4
 05:25     20:52    Daglengte: 15:27 Zaterdag 31 Jul
01:00
14°
 
4
Locatie info
Region: England
Latitude: 51.8816°N
Longitude: -0.4161°E
117 masl
Postcode: LU1 2
Temp/Neerslag /Baro Onweer/Dauwpunt
    Temp Baro 1h Neerslag Dauwpunt Wind UV Bewolking  
 05:21     20:57    Daglengte: 15:36 Vandaag
06:00
15°
1005.8 hPa
48%
13.6°
5
Windvlaag: 4.5 m/s
56%
07:00
15°
1006.1 hPa
21%
13.2°
5
Windvlaag: 4.7 m/s
58%
08:00
15°
1006.3 hPa
15%
12.9°
5
Windvlaag: 5.4 m/s
75%
09:00
16°
1006.6 hPa
18%
13.0°
5
Windvlaag: 5 m/s
74%
10:00
17°
1006.7 hPa
80%
12.3°
5
Windvlaag: 5.4 m/s
57%
11:00
17°
1006.5 hPa
80%
10.8°
5
Windvlaag: 5.8 m/s
67%
12:00
18°
1006.4 hPa 0.2 mm
82%
12.2°
6
Windvlaag: 6.1 m/s
54%
13:00
17°
1006.4 hPa 1.0 mm
82%
11.9°
6
Windvlaag: 6.9 m/s
27% warningclass
14:00
18°
1006.3 hPa 0.3 mm
82%
13.7°
7
Windvlaag: 8.5 m/s
44%
15:00
18°
1006.1 hPa 0.7 mm
82%
14.1°
7
Windvlaag: 8.7 m/s
46%
16:00
18°
1005.9 hPa 0.8 mm
82%
13.4°
7
Windvlaag: 9 m/s
66% warningclass
17:00
18°
1005.8 hPa 0.7 mm
82%
12.8°
7
Windvlaag: 9.4 m/s
13%
18:00
17°
1005.7 hPa 0.4 mm
82%
11.9°
7
Windvlaag: 9.3 m/s
8%
19:00
17°
1005.7 hPa
82%
11.7°
7
Windvlaag: 8 m/s
30%
20:00
16°
1006.0 hPa
69%
11.6°
6
Windvlaag: 7 m/s
10%
21:00
15°
1006.6 hPa
16%
11.3°
6
Windvlaag: 5.2 m/s
5%
22:00
14°
1007.0 hPa
14%
11.2°
6
Windvlaag: 4.3 m/s
3%
23:00
14°
1007.3 hPa
14%
10.6°
6
Windvlaag: 7.3 m/s
5%
 05:22     20:55    Daglengte: 15:33 Morgen
00:00
13°
1007.4 hPa
14%
10.2°
6
Windvlaag: 8.1 m/s
6%
01:00
13°
1007.5 hPa
14%
9.7°
6
Windvlaag: 8 m/s
5%
02:00
13°
1007.5 hPa
14%
9.2°
7
Windvlaag: 7.6 m/s
15%
03:00
13°
1007.4 hPa
14%
9.1°
6
Windvlaag: 7.6 m/s
5%
04:00
12°
1007.5 hPa
14%
8.8°
6
Windvlaag: 7.1 m/s
10%
05:00
12°
1007.7 hPa
14%
9.0°
6
Windvlaag: 6.8 m/s
23%
06:00
12°
1008.1 hPa
14%
9.0°
5
Windvlaag: 6.3 m/s
22%
07:00
13°
1008.4 hPa
14%
9.3°
6
Windvlaag: 6.2 m/s
13%
08:00
13°
1008.7 hPa
14%
9.1°
6
Windvlaag: 5.9 m/s
12%
09:00
15°
1009.0 hPa
14%
9.3°
6
Windvlaag: 5.6 m/s
15%
10:00
16°
1009.2 hPa
14%
9.8°
6
Windvlaag: 5.2 m/s
6%
11:00
17°
1009.3 hPa
14%
9.5°
7
Windvlaag: 5.6 m/s
61%
12:00
18°
1009.3 hPa
14%
9.6°
7
Windvlaag: 6.2 m/s
57%
13:00
19°
1009.1 hPa
50%
9.5°
8
Windvlaag: 6.3 m/s
58%
14:00
20°
1009.1 hPa
14%
9.8°
8
Windvlaag: 5.7 m/s
15%
15:00
20°
1009.0 hPa
14%
11.5°
8
Windvlaag: 5.7 m/s
38%
16:00
20°
1009.0 hPa
14%
12.8°
7
Windvlaag: 6.1 m/s
47%
17:00
20°
1008.8 hPa
14%
13.5°
7
Windvlaag: 5.7 m/s
17%
18:00
19°
1008.7 hPa
14%
13.8°
7
Windvlaag: 5.6 m/s
55%
19:00
18°
1008.7 hPa
14%
14.4°
6
Windvlaag: 5.2 m/s
76%
20:00
18°
1008.9 hPa
14%
14.2°
5
Windvlaag: 5.1 m/s
77%
21:00
16°
1009.0 hPa
15%
13.0°
5
Windvlaag: 5.8 m/s
65%
22:00
15°
1008.7 hPa
22%
9.0°
5
Windvlaag: 6.5 m/s
73%
23:00
15°
1008.6 hPa
21%
9.1°
4
Windvlaag: 6.5 m/s
77%
 05:24     20:54    Daglengte: 15:30 Vrijdag 30 Jul
00:00
15°
1008.5 hPa
21%
9.8°
4
Windvlaag: 5.5 m/s
92%
01:00
14°
1007.9 hPa
21%
9.8°
3
Windvlaag: 5.1 m/s
95%
02:00
14°
1007.3 hPa 0.3 mm
21%
11.0°
3
Windvlaag: 5.1 m/s
99%
03:00
13°
1006.6 hPa 0.9 mm
45%
10.9°
3
Windvlaag: 4.6 m/s
97%
04:00
13°
1005.6 hPa 0.5 mm
37%
10.8°
3
Windvlaag: 3.3 m/s
98%
05:00
13°
1005.0 hPa 0.7 mm
100%
10.7°
3
Windvlaag: 1.9 m/s
90%
06:00
13°
1004.3 hPa 1.2 mm
100%
10.7°
4
Windvlaag: 1.1 m/s
96% warningclass
07:00
14°
1004.0 hPa 1.1 mm
100%
10.6°
4
Windvlaag: 0 m/s
99%
08:00
14°
1003.7 hPa 1.6 mm
100%
11.1°
4
Windvlaag: -1 m/s
92%
09:00
14°
1003.4 hPa 2.3 mm
46%
12.0°
5
Windvlaag: -4.2 m/s
97%
10:00
14°
1003.3 hPa 1.2 mm
100%
11.5°
5
Windvlaag: -6.4 m/s
99%
11:00
15°
1003.3 hPa 0.7 mm
100%
10.0°
2
Windvlaag: -6.9 m/s
100%
12:00
15°
1003.7 hPa 1.3 mm
100%
9.7°
5
Windvlaag: -6.3 m/s
89%
13:00
15°
1004.1 hPa 0.6 mm
100%
10.6°
5
Windvlaag: -5.4 m/s
80%
14:00
15°
1004.4 hPa 1.7 mm
93%
13.6°
5
Windvlaag: -6.1 m/s
96%
15:00
15°
1004.7 hPa
95%
13.7°
5
Windvlaag: -5.8 m/s
100%
16:00
16°
1005.0 hPa 2.9 mm
35%
13.0°
5
Windvlaag: -1.2 m/s
100%
17:00
16°
1005.1 hPa 3.1 mm
32%
12.0°
5
Windvlaag: -1.7 m/s
96%
18:00
16°
1005.4 hPa
24%
13.7°
5
Windvlaag: -1.2 m/s
91%
19:00
16°
1005.6 hPa
25%
13.2°
4
Windvlaag: -0.2 m/s
84%
20:00
16°
1005.7 hPa
21%
12.8°
4
Windvlaag: 1 m/s
69%
21:00
15°
1006.1 hPa
22%
12.0°
3
Windvlaag: 1.1 m/s
63%
22:00
15°
1006.4 hPa
22%
11.6°
3
Windvlaag: 1.3 m/s
92%
23:00
14°
1006.6 hPa
22%
13.5°
4
Windvlaag: 2.4 m/s
85%
 05:25     20:52    Daglengte: 15:27 Zaterdag 31 Jul
00:00
14°
1006.9 hPa
22%
13.5°
4
Windvlaag: 2.5 m/s
84%
01:00
14°
1007.0 hPa
30%
13.1°
4
Windvlaag: 2.3 m/s
86%
02:00
14°
1006.8 hPa
27%
13.0°
4
Windvlaag: 10.6 m/s
94%
03:00
14°
1006.8 hPa
21%
13.1°
4
Windvlaag: 9.9 m/s
98%
04:00
14°
1006.7 hPa
21%
12.9°
4
Windvlaag: 9.6 m/s
98%
05:00
13°
1006.7 hPa
22%
12.8°
4
Windvlaag: 9.4 m/s
90%
Temp/Neerslag /Baro Onweer/Dauwpunt
    Temp Baro Neerslag Dauwpunt Wind Bewolking  
 05:21     20:57    Daglengte: 15:36 Vandaag
07:00
15°
1006.1 hPa   13.2°
5
58%
10:00
17°
1006.7 hPa   12.3°
5
57%
13:00
17°
1006.4 hPa 1.2 mm 11.9°
6
27% warningclass
16:00
18°
1005.9 hPa 1.7 mm 13.4°
7
66% warningclass
19:00
17°
1005.7 hPa 1.1 mm 11.7°
7
30%
22:00
14°
1007.0 hPa   11.2°
6
3%
 05:22     20:55    Daglengte: 15:33 Morgen
01:00
13°
1007.5 hPa   9.7°
6
5%
04:00
12°
1007.5 hPa   8.8°
6
10%
07:00
13°
1008.4 hPa   9.3°
6
13%
10:00
16°
1009.2 hPa   9.8°
6
6%
13:00
19°
1009.1 hPa   9.5°
8
58%
16:00
20°
1009.0 hPa   12.8°
7
47%
19:00
18°
1008.7 hPa   14.4°
6
76%
22:00
15°
1008.7 hPa   9.0°
5
73%
 05:24     20:54    Daglengte: 15:30 Vrijdag 30 Jul
01:00
14°
1007.9 hPa   9.8°
3
95%
04:00
13°
1005.6 hPa 1.6 mm 10.8°
3
98%
07:00
14°
1004.0 hPa 3.0 mm 10.6°
4
99%
10:00
14°
1003.3 hPa 5.1 mm 11.5°
5
99%
13:00
15°
1004.1 hPa 2.7 mm 10.6°
5
80%
16:00
16°
1005.0 hPa 4.6 mm 13.0°
5
100%
19:00
16°
1005.6 hPa 3.1 mm 13.2°
4
84%
22:00
15°
1006.4 hPa   11.6°
3
92%
 05:25     20:52    Daglengte: 15:27 Zaterdag 31 Jul
01:00
14°
1007.0 hPa   13.1°
4
86%
04:00
14°
1006.7 hPa   12.9°
4
98%
07:00
14°
1007.3 hPa 9.3 mm 12.8°
4
96%
10:00
15°
1009.4 hPa 18.6 mm 12.6°
4
1%
13:00
18°
1009.4 hPa 18.7 mm 13.1°
5
1%
16:00
19°
1008.9 hPa 19.0 mm 12.0°
5
1%
19:00
18°
1008.6 hPa 19.4 mm 13.2°
3
1%
22:00
16°
1009.0 hPa 19.4 mm 12.7°
3
1%
 05:27     20:50    Daglengte: 15:23 Zondag 01 Aug
01:00
14°
1009.0 hPa 19.5 mm 12.3°
3
1%
04:00
13°
1008.9 hPa 19.5 mm 10.7°
2
1%
07:00
14°
1009.7 hPa 19.5 mm 11.6°
3
1%
10:00
15°
1010.3 hPa 19.5 mm 9.6°
3
1%
13:00
19°
1010.4 hPa 19.6 mm 9.9°
3
1%
16:00
18°
1010.6 hPa 19.7 mm 9.0°
3
1%
19:00
19°
1010.6 hPa 19.7 mm 12.0°
3
1%
22:00
14°
1012.1 hPa 19.7 mm 11.9°
4
1%
 05:28     20:49    Daglengte: 15:21 Maandag 02 Aug
01:00
13°
1012.6 hPa 19.7 mm 11.0°
3
1%
04:00
13°
1012.8 hPa 19.7 mm 10.4°
3
1%
07:00
13°
1013.6 hPa 19.9 mm 10.1°
3
1%
10:00
15°
1014.2 hPa 20.1 mm 10.6°
4
1%
13:00
19°
1014.1 hPa 20.4 mm 10.1°
3
1%
16:00
19°
1013.8 hPa 21.0 mm 11.6°
4
1%
19:00
17°
1013.9 hPa 21.7 mm 12.5°
4
1%
22:00
15°
1014.7 hPa 21.9 mm 12.0°
4
1%
 05:30     20:47    Daglengte: 15:17 Dinsdag 03 Aug
01:00
14°
1014.7 hPa 21.9 mm 11.3°
3
1%
04:00
14°
1013.7 hPa 21.9 mm 11.5°
3
1%
07:00
14°
1014.1 hPa 21.9 mm 11.8°
2
1%
10:00
18°
1013.4 hPa 21.9 mm 12.6°
3
1%
13:00
20°
1012.3 hPa 22.2 mm 12.5°
4
1%
16:00
19°
1011.6 hPa 22.3 mm 13.5°
4
1%
19:00
19°
1010.8 hPa 22.4 mm 11.3°
4
1%
22:00
14°
1011.5 hPa 22.4 mm 10.1°
4
1%
 05:31     20:45    Daglengte: 15:14 Woensdag 04 Aug
01:00
13°
1010.9 hPa 22.4 mm 10.6°
3
1%
04:00
12°
1009.4 hPa   10.6°
3
1%
07:00
13°
1009.1 hPa 44.8 mm 11.0°
4
1%
13:00
20°
1006.4 hPa 44.9 mm 12.4°
6
1%
19:00
19°
1004.4 hPa 47.5 mm 12.7°
5
1%
 05:33     20:43    Daglengte: 15:10 Donderdag 05 Aug
01:00
12°
1004.8 hPa 48.4 mm 11.3°
4
0%
07:00
14°
1003.2 hPa 48.4 mm 12.7°
4
1%
13:00
20°
1002.8 hPa 49.1 mm 11.5°
6
1%
19:00
18°
1001.8 hPa 52.0 mm 11.1°
6
1%
 05:34     20:41    Daglengte: 15:07 Vrijdag 06 Aug
01:00
13°
1002.0 hPa 53.6 mm 11.4°
3
1%
07:00
13°
999.4 hPa 53.6 mm 11.8°
3
1%
13:00
14°
996.5 hPa 56.8 mm 12.8°
4
1%
19:00
15°
996.1 hPa 64.3 mm 12.9°
2
1%
 05:36     20:40    Daglengte: 15:04 Zaterdag 07 Aug
01:00
14°
1007.8 hPa 0.8 mm 11.0°
3
59%
07:00
13°
1007.9 hPa 0.5 mm 11.1°
3
67%
13:00
19°
1008.7 hPa 1.3 mm 11.4°
4
61%
19:00
18°
1008.8 hPa 1.4 mm 11.7°
4
71%
 05:38     20:38    Daglengte: 15:00 Zondag 08 Aug
01:00
14°
1009.9 hPa 0.7 mm 10.8°
4
63%
07:00
13°
1009.6 hPa 0.4 mm 11.1°
3
68%
13:00
19°
1010.6 hPa 1.3 mm 11.9°
5
63%
19:00
18°
1011.0 hPa 1.7 mm 11.6°
4
67%
 05:39     20:36    Daglengte: 14:57 Maandag 09 Aug
01:00
14°
1012.8 hPa 0.4 mm 11.0°
3
56%
07:00
14°
1013.1 hPa 0.6 mm 11.4°
3
52%
13:00
20°
1014.4 hPa 0.6 mm 11.4°
4
50%
19:00
18°
1014.8 hPa 2.3 mm 11.4°
3
66%
 05:41     20:34    Daglengte: 14:53 Dinsdag 10 Aug
01:00
14°
1017.0 hPa 0.6 mm 10.7°
2
58%
07:00
13°
1017.8 hPa 0.2 mm 10.5°
2
50%
13:00
19°
1018.7 hPa 0.3 mm 11.6°
3
58%
19:00
19°
1018.5 hPa 0.6 mm 11.2°
3
59%
 05:42     20:32    Daglengte: 14:50 Woensdag 11 Aug
01:00
14°
1019.9 hPa 0.3 mm 10.2°
3
43%
07:00
13°
1019.5 hPa 0.1 mm 10.4°
2
43%
13:00
20°
1019.1 hPa 0.2 mm 11.0°
3
52%
19:00
20°
1017.8 hPa 0.8 mm 12.1°
3
61%
 05:44     20:30    Daglengte: 14:46 Donderdag 12 Aug
01:00
15°
1018.0 hPa 0.6 mm 11.7°
2
68%
  CAPE Lifted Index Hail Supercell Tornado SRH 3km CL BTM PRES CL TOP PRES Swiss DWD icon SMHI TS
 05:21     20:57    Daglengte: 15:36 Vandaag
06:00 0 J/kg 1.6 K 0 % 0 % 0 % 0 m²/s² 0 0 2.62 2
07:00 0 J/kg 2.6 K 0 % 0 % 0 % 0 m²/s² 0 0 4.31 3
08:00 6 J/kg 2.0 K 0 % 0 % 0 % 0 m²/s² 0 0 4.16 3
09:00 91 J/kg 1.1 K 0 % 0 % 0 % 0 m²/s² 0 0 4.67 3
10:00 143 J/kg 0.7 K 0 % 0 % 0 % 0 m²/s² 0 0 3.25 3
11:00 192 J/kg 0.2 K 0 % 0 % 0 % 0 m²/s² 0 0 1.4 80
12:00 304 J/kg -0.9 K 0 % 0 % 0 % 0 m²/s² 0 0 -0.18 3
13:00 220 J/kg -0.4 K 0 % 0 % 0 % 0 m²/s² 0 0 1.16 95
14:00 38 J/kg 0.4 K 0 % 0 % 0 % 0 m²/s² 0 0 0.64 2
15:00 447 J/kg -1.9 K 0 % 0 % 0 % 0 m²/s² 0 0 -1.48 80
16:00 243 J/kg -0.2 K 0 % 0 % 0 % 0 m²/s² 0 0 1.15 95
17:00 240 J/kg 0.3 K 0 % 0 % 0 % 0 m²/s² 0 0 2.7 80
18:00 120 J/kg 2.1 K 0 % 0 % 0 % 0 m²/s² 0 0 4.41 2
19:00 96 J/kg 2.6 K 0 % 0 % 0 % 0 m²/s² 0 0 6.38 2
20:00 87 J/kg 3.1 K 0 % 0 % 0 % 0 m²/s² 0 0 7.18 2
21:00 15 J/kg 3.7 K 0 % 0 % 0 % 0 m²/s² 0 0 7.45 2
22:00 48 J/kg 3.7 K 0 % 0 % 0 % 0 m²/s² 0 0 6.73 1
23:00 92 J/kg 3.6 K 0 % 0 % 0 % 0 m²/s² 0 0 6.24 1
 05:22     20:55    Daglengte: 15:33 Morgen
00:00 178 J/kg 3.7 K 0 % 0 % 0 % 0 m²/s² 0 0 5.41 1
01:00 207 J/kg 4.3 K 0 % 0 % 0 % 0 m²/s² 0 0 5.29 2
02:00 209 J/kg 4.8 K 0 % 0 % 0 % 0 m²/s² 0 0 7.59 3
03:00 111 J/kg 6.0 K 0 % 0 % 0 % 0 m²/s² 0 0 9.9 2
04:00 5 J/kg 6.4 K 0 % 0 % 0 % 0 m²/s² 0 0 10.12 2
05:00 0 J/kg 6.2 K 0 % 0 % 0 % 0 m²/s² 0 0 9.86 3
06:00 0 J/kg 6.1 K 0 % 0 % 0 % 0 m²/s² 0 0 9.07 3
07:00 0 J/kg 6.6 K 0 % 0 % 0 % 0 m²/s² 0 0 9.51 2
08:00 0 J/kg 6.0 K 0 % 0 % 0 % 0 m²/s² 0 0 8.76 2
09:00 0 J/kg 5.7 K 0 % 0 % 0 % 0 m²/s² 0 0 8.61 2
10:00 3 J/kg 5.3 K 0 % 0 % 0 % 0 m²/s² 0 0 8.81 1
11:00 3 J/kg 5.2 K 0 % 0 % 0 % 0 m²/s² 0 0 9.52 3
12:00 6 J/kg 4.6 K 0 % 0 % 0 % 0 m²/s² 0 0 9.4 3
13:00 12 J/kg 4.7 K 0 % 0 % 0 % 0 m²/s² 0 0 9.41 3
14:00 13 J/kg 5.1 K 0 % 0 % 0 % 0 m²/s² 0 0 8.67 2
15:00 26 J/kg 4.5 K 0 % 0 % 0 % 0 m²/s² 0 0 7.23 3
16:00 20 J/kg 4.5 K 0 % 0 % 0 % 0 m²/s² 0 0 7.17 3
17:00 16 J/kg 4.3 K 0 % 0 % 0 % 0 m²/s² 0 0 6.91 1
18:00 9 J/kg 4.3 K 0 % 0 % 0 % 0 m²/s² 0 0 6.49 3
19:00 0 J/kg 4.0 K 0 % 0 % 0 % 0 m²/s² 0 0 5.68 3
20:00 0 J/kg 3.8 K 0 % 0 % 0 % 0 m²/s² 0 0 5.3 3
21:00 0 J/kg 4.4 K 0 % 0 % 0 % 0 m²/s² 0 0 5.78 3
22:00 0 J/kg 4.1 K 0 % 0 % 0 % 0 m²/s² 0 0 5.54 3
23:00 0 J/kg 3.7 K 0 % 0 % 0 % 0 m²/s² 0 0 5.08 3
 05:24     20:54    Daglengte: 15:30 Vrijdag 30 Jul
00:00 0 J/kg 3.9 K 0 % 0 % 0 % 0 m²/s² 0 0 5.34 3
01:00 0 J/kg 3.8 K 0 % 0 % 0 % 0 m²/s² 0 0 5.45 3
02:00 0 J/kg 3.9 K 0 % 0 % 0 % 0 m²/s² 0 0 7.8 3
03:00 0 J/kg 4.1 K 0 % 0 % 0 % 0 m²/s² 0 0 8.42 3
04:00 0 J/kg 4.3 K 0 % 0 % 0 % 0 m²/s² 0 0 6.85 3
05:00 0 J/kg 4.5 K 0 % 0 % 0 % 0 m²/s² 0 0 5.82 3
06:00 0 J/kg 5.4 K 0 % 0 % 0 % 0 m²/s² 0 0 5.7 95
07:00 0 J/kg 5.4 K 0 % 0 % 0 % 0 m²/s² 0 0 5.58 80
08:00 0 J/kg 4.8 K 0 % 0 % 0 % 0 m²/s² 0 0 5.01 80
09:00 4 J/kg 3.8 K 0 % 0 % 0 % 0 m²/s² 0 0 3.98 3
10:00 19 J/kg 3.0 K 0 % 0 % 0 % 0 m²/s² 0 0 3.24 80
11:00 1 J/kg 2.8 K 0 % 0 % 0 % 0 m²/s² 0 0 3.1 80
12:00 1 J/kg 2.5 K 0 % 0 % 0 % 0 m²/s² 0 0 2.68 80
13:00 0 J/kg 2.3 K 0 % 0 % 0 % 0 m²/s² 0 0 2.48 3
14:00 0 J/kg 2.7 K 0 % 0 % 0 % 0 m²/s² 0 0 2.91 3
15:00 2 J/kg 2.0 K 0 % 0 % 0 % 0 m²/s² 0 0 2.12 3
16:00 46 J/kg 1.3 K 0 % 0 % 0 % 0 m²/s² 0 0 1.63 3
17:00 50 J/kg 1.1 K 0 % 0 % 0 % 0 m²/s² 0 0 1.34 3
18:00 13 J/kg 1.7 K 0 % 0 % 0 % 0 m²/s² 0 0 1.82 3
19:00 25 J/kg 1.4 K 0 % 0 % 0 % 0 m²/s² 0 0 1.73 3
20:00 48 J/kg 0.9 K 0 % 0 % 0 % 0 m²/s² 0 0 1.47 3
21:00 9 J/kg 2.1 K 0 % 0 % 0 % 0 m²/s² 0 0 2.88 2
22:00 0 J/kg 1.3 K 0 % 0 % 0 % 0 m²/s² 0 0 1.81 3
23:00 18 J/kg 0.5 K 0 % 0 % 0 % 0 m²/s² 0 0 0.92 3
 05:25     20:52    Daglengte: 15:27 Zaterdag 31 Jul
00:00 50 J/kg -0.1 K 0 % 0 % 0 % 0 m²/s² 0 0 0.59 3
01:00 0 J/kg 1.0 K 0 % 0 % 0 % 0 m²/s² 0 0 1.87 3
02:00 0 J/kg 2.0 K 0 % 0 % 0 % 0 m²/s² 0 0 3.17 3
03:00 0 J/kg 2.2 K 0 % 0 % 0 % 0 m²/s² 0 0 3.07 3
04:00 0 J/kg 2.2 K 0 % 0 % 0 % 0 m²/s² 0 0 2.74 3
05:00 0 J/kg 2.4 K 0 % 0 % 0 % 0 m²/s² 0 0 3.33 3
Temp Baro Wind Neerslag
  EWN Forecast EWN WRFDA DWD ICON FMI HIRLAM MET Norway GFS
 05:21     20:57    Daglengte: 15:36 Vandaag
07:00 15.0° 1006.1 hPa 5.0 m/s 0.0 mm 13.2° 1005.2 hPa 6.0 m/s 0.1 mm 15.2° 1006.1 hPa 4.8 m/s -0.3 mm 15.2° 1006.6 hPa 4.5 m/s 0.0 mm 13.8° 1005.8 hPa 4.8 m/s
10:00 16.5° 1006.7 hPa 5.2 m/s 0.0 mm 17.3° 1005.9 hPa 6.0 m/s 0.2 mm 16.4° 1006.8 hPa 5.0 m/s 0.2 mm 17.3° 1007.5 hPa 3.7 m/s 0.0 mm 16.9° 1006.1 hPa 6.4 m/s
13:00 16.8° 1006.4 hPa 5.8 m/s 1.2 mm 18.9° 1005.1 hPa 6.3 m/s 0.2 mm 17.4° 1006.5 hPa 6.0 m/s 1.4 mm 16.5° 1007.8 hPa 4.1 m/s 0.0 mm 18.7° 1005.8 hPa 8.0 m/s
16:00 17.7° 1005.9 hPa 6.9 m/s 1.7 mm 19.5° 1004.5 hPa 7.7 m/s 1.3 mm 18.0° 1006.0 hPa 6.7 m/s 1.5 mm 17.7° 1006.8 hPa 6.7 m/s 0.0 mm 18.5° 1005.3 hPa 8.6 m/s
19:00 16.8° 1005.7 hPa 7.3 m/s 1.1 mm 18.5° 1004.5 hPa 10.1 m/s 1.6 mm 16.9° 1005.7 hPa 6.3 m/s 1.5 mm 16.7° 1006.8 hPa 6.7 m/s 0.0 mm 16.8° 1005.5 hPa 7.7 m/s
22:00 14.3° 1007.0 hPa 5.7 m/s 0.0 mm 14.5° 1006.1 hPa 7.2 m/s 1.7 mm 14.9° 1007.0 hPa 5.6 m/s 0.0 mm 14.4° 1007.8 hPa 5.1 m/s 0.0 mm 13.5° 1007.1 hPa 6.5 m/s
 05:22     20:55    Daglengte: 15:33 Morgen
01:00 13.0° 1007.5 hPa 6.2 m/s 0.0 mm 12.6° 1006.4 hPa 6.4 m/s 1.7 mm 12.9° 1007.6 hPa 5.9 m/s 0.0 mm 13.8° 1007.7 hPa 6.0 m/s 0.0 mm 12.1° 1007.3 hPa 7.1 m/s
04:00 12.3° 1007.5 hPa 6.1 m/s 0.0 mm 11.2° 1006.4 hPa 6.3 m/s 1.7 mm 12.3° 1008.0 hPa 5.4 m/s 0.0 mm 13.3° 1007.5 hPa 6.0 m/s 0.0 mm 11.1° 1007.4 hPa 6.3 m/s
07:00 12.5° 1008.4 hPa 5.7 m/s 0.0 mm 12.1° 1007.1 hPa 6.7 m/s 1.7 mm 12.5° 1009.0 hPa 5.1 m/s 0.0 mm 13.3° 1007.9 hPa 5.5 m/s 0.0 mm 11.4° 1008.4 hPa 6.1 m/s
10:00 15.9° 1009.2 hPa 6.2 m/s 0.0 mm 16.1° 1008.0 hPa 8.0 m/s 1.7 mm 15.8° 1009.8 hPa 5.8 m/s 0.0 mm 16.8° 1008.5 hPa 5.9 m/s 0.0 mm 15.7° 1008.9 hPa 7.6 m/s
13:00 18.9° 1009.1 hPa 7.7 m/s 0.0 mm 19.3° 1007.4 hPa 8.9 m/s 1.7 mm 19.4° 1009.4 hPa 6.9 m/s 0.0 mm 18.4° 1008.8 hPa 8.0 m/s 0.0 mm 17.4° 1008.8 hPa 7.1 m/s
16:00 19.8° 1009.0 hPa 7.4 m/s 0.0 mm 20.4° 1007.3 hPa 9.2 m/s 1.7 mm 20.2° 1009.1 hPa 6.7 m/s 0.0 mm 16.6° 1009.8 hPa 7.6 m/s 0.0 mm 18.0° 1008.7 hPa 7.7 m/s
19:00 18.4° 1008.7 hPa 6.3 m/s 0.0 mm 18.5° 1008.0 hPa 7.6 m/s 1.7 mm 18.8° 1008.6 hPa 4.6 m/s 0.0 mm 15.8° 1010.5 hPa 6.5 m/s 0.0 mm 17.0° 1008.8 hPa 7.5 m/s
22:00 15.5° 1008.7 hPa 4.5 m/s 0.0 mm 15.2° 1008.5 hPa 5.3 m/s 1.7 mm 15.5° 1008.9 hPa 3.5 m/s 0.0 mm 14.9° 1009.5 hPa 6.0 m/s
 05:24     20:54    Daglengte: 15:30 Vrijdag 30 Jul
01:00 14.1° 1007.9 hPa 3.1 m/s 0.0 mm 13.6° 1009.2 hPa 5.6 m/s 1.7 mm 14.1° 1007.7 hPa 2.3 m/s 0.0 mm 14.0° 1009.7 hPa 5.0 m/s
04:00 13.3° 1005.6 hPa 3.2 m/s 1.6 mm 12.8° 1008.2 hPa 4.3 m/s 1.7 mm 13.9° 1005.2 hPa 3.5 m/s 0.0 mm 13.0° 1009.1 hPa 3.4 m/s
07:00 13.6° 1004.0 hPa 3.9 m/s 3.0 mm 13.8° 1008.1 hPa 3.6 m/s 1.7 mm 14.2° 1001.6 hPa 5.3 m/s 1.6 mm 12.8° 1009.3 hPa 3.2 m/s
10:00 14.0° 1003.3 hPa 4.6 m/s 5.1 mm 14.3° 1007.8 hPa 3.0 m/s 3.2 mm 15.0° 998.7 hPa 4.5 m/s 0.6 mm 13.4° 1008.4 hPa 2.1 m/s
13:00 14.9° 1004.1 hPa 5.0 m/s 2.7 mm 15.1° 1006.2 hPa 2.8 m/s 4.2 mm 15.8° 1000.4 hPa 6.3 m/s 1.9 mm 13.5° 1006.6 hPa 3.9 m/s
16:00 15.8° 1005.0 hPa 5.1 m/s 4.6 mm 15.6° 1005.2 hPa 3.9 m/s 21.2 mm 14.8° 1004.0 hPa 6.1 m/s 0.2 mm 13.3° 1004.8 hPa 3.6 m/s
19:00 15.9° 1005.6 hPa 4.1 m/s 3.1 mm 15.2° 1005.5 hPa 3.5 m/s 26.7 mm 15.8° 1005.0 hPa 4.1 m/s 0.0 mm 12.5° 1005.3 hPa 5.1 m/s
22:00 14.6° 1006.4 hPa 3.4 m/s 0.0 mm 14.6° 1006.1 hPa 2.5 m/s 27.6 mm 14.9° 1006.0 hPa 3.3 m/s 0.0 mm 12.6° 1006.8 hPa 4.0 m/s
 05:25     20:52    Daglengte: 15:27 Zaterdag 31 Jul
01:00 13.9° 1007.0 hPa 4.4 m/s 0.0 mm 13.4° 1006.7 hPa 4.9 m/s 27.6 mm 14.1° 1006.7 hPa 3.9 m/s 0.0 mm 12.5° 1007.9 hPa 4.9 m/s
04:00 13.5° 1006.7 hPa 3.9 m/s 0.0 mm 11.6° 1006.7 hPa 5.1 m/s 27.6 mm 14.0° 1006.7 hPa 3.6 m/s 0.0 mm 11.0° 1008.1 hPa 4.2 m/s
07:00 13.8° 1007.3 hPa 4.0 m/s 9.3 mm 12.2° 1007.0 hPa 4.8 m/s 27.6 mm 14.2° 1007.4 hPa 3.7 m/s 0.2 mm 12.1° 1008.7 hPa 3.7 m/s
10:00 15.3° 1009.4 hPa 4.4 m/s 18.6 mm 15.3° 1009.4 hPa 4.4 m/s 18.6 mm
13:00 18.4° 1009.4 hPa 4.8 m/s 18.7 mm 18.4° 1009.4 hPa 4.8 m/s 18.7 mm
16:00 19.1° 1008.9 hPa 4.7 m/s 19.0 mm 19.1° 1008.9 hPa 4.7 m/s 19.0 mm
19:00 17.7° 1008.6 hPa 3.3 m/s 19.4 mm 17.7° 1008.6 hPa 3.3 m/s 19.4 mm
22:00 15.7° 1009.0 hPa 2.9 m/s 19.4 mm 15.7° 1009.0 hPa 2.9 m/s 19.4 mm
 05:27     20:50    Daglengte: 15:23 Zondag 01 Aug
01:00 13.7° 1009.0 hPa 2.9 m/s 19.5 mm 13.7° 1009.0 hPa 2.9 m/s 19.5 mm
04:00 12.6° 1008.9 hPa 2.3 m/s 19.5 mm 12.6° 1008.9 hPa 2.3 m/s 19.5 mm
07:00 13.5° 1009.7 hPa 2.6 m/s 19.5 mm 13.5° 1009.7 hPa 2.6 m/s 19.5 mm
10:00 15.1° 1010.3 hPa 2.6 m/s 19.5 mm 15.1° 1010.3 hPa 2.6 m/s 19.5 mm
13:00 18.8° 1010.4 hPa 2.7 m/s 19.6 mm 18.8° 1010.4 hPa 2.7 m/s 19.6 mm
16:00 18.4° 1010.6 hPa 2.5 m/s 19.7 mm 18.4° 1010.6 hPa 2.5 m/s 19.7 mm
19:00 18.6° 1010.6 hPa 3.0 m/s 19.7 mm 18.6° 1010.6 hPa 3.0 m/s 19.7 mm
22:00 14.0° 1012.1 hPa 4.4 m/s 19.7 mm 14.0° 1012.1 hPa 4.4 m/s 19.7 mm
 05:28     20:49    Daglengte: 15:21 Maandag 02 Aug
01:00 13.1° 1012.6 hPa 3.4 m/s 19.7 mm 13.1° 1012.6 hPa 3.4 m/s 19.7 mm
04:00 12.7° 1012.8 hPa 3.2 m/s 19.7 mm 12.7° 1012.8 hPa 3.2 m/s 19.7 mm
07:00 12.6° 1013.6 hPa 3.4 m/s 19.9 mm 12.6° 1013.6 hPa 3.4 m/s 19.9 mm
10:00 15.4° 1014.2 hPa 4.2 m/s 20.1 mm 15.4° 1014.2 hPa 4.2 m/s 20.1 mm
13:00 19.3° 1014.1 hPa 3.3 m/s 20.4 mm 19.3° 1014.1 hPa 3.3 m/s 20.4 mm
16:00 18.7° 1013.8 hPa 3.7 m/s 21.0 mm 18.7° 1013.8 hPa 3.7 m/s 21.0 mm
19:00 17.3° 1013.9 hPa 3.7 m/s 21.7 mm 17.3° 1013.9 hPa 3.7 m/s 21.7 mm
22:00 14.5° 1014.7 hPa 3.9 m/s 21.9 mm 14.5° 1014.7 hPa 3.9 m/s 21.9 mm
 05:30     20:47    Daglengte: 15:17 Dinsdag 03 Aug
01:00 14.2° 1014.7 hPa 3.1 m/s 21.9 mm 14.2° 1014.7 hPa 3.1 m/s 21.9 mm
04:00 14.0° 1013.7 hPa 2.6 m/s 21.9 mm 14.0° 1013.7 hPa 2.6 m/s 21.9 mm
07:00 14.3° 1014.1 hPa 1.9 m/s 21.9 mm 14.3° 1014.1 hPa 1.9 m/s 21.9 mm
10:00 17.6° 1013.4 hPa 3.0 m/s 21.9 mm 17.6° 1013.4 hPa 3.0 m/s 21.9 mm
13:00 19.9° 1012.3 hPa 3.9 m/s 22.2 mm 19.9° 1012.3 hPa 3.9 m/s 22.2 mm
16:00 19.4° 1011.6 hPa 4.2 m/s 22.3 mm 19.4° 1011.6 hPa 4.2 m/s 22.3 mm
19:00 19.4° 1010.8 hPa 3.8 m/s 22.4 mm 19.4° 1010.8 hPa 3.8 m/s 22.4 mm
22:00 14.2° 1011.5 hPa 3.6 m/s 22.4 mm 14.2° 1011.5 hPa 3.6 m/s 22.4 mm
 05:31     20:45    Daglengte: 15:14 Woensdag 04 Aug
01:00 12.5° 1010.9 hPa 3.1 m/s 22.4 mm 12.5° 1010.9 hPa 3.1 m/s 22.4 mm
04:00 12.4° 1009.4 hPa 2.9 m/s 22.4 mm 12.4° 1009.4 hPa 2.9 m/s 22.4 mm
07:00 13.5° 1009.1 hPa 3.6 m/s 22.4 mm 13.5° 1009.1 hPa 3.6 m/s 22.4 mm
13:00 20.1° 1006.4 hPa 5.7 m/s 22.5 mm 20.1° 1006.4 hPa 5.7 m/s 22.5 mm
19:00 18.8° 1004.4 hPa 5.4 m/s 24.2 mm 18.8° 1004.4 hPa 5.4 m/s 24.2 mm
 05:33     20:43    Daglengte: 15:10 Donderdag 05 Aug
01:00 12.5° 1004.8 hPa 3.9 m/s 24.2 mm 12.5° 1004.8 hPa 3.9 m/s 24.2 mm
07:00 14.2° 1003.2 hPa 4.0 m/s 24.2 mm 14.2° 1003.2 hPa 4.0 m/s 24.2 mm
13:00 20.2° 1002.8 hPa 6.4 m/s 24.9 mm 20.2° 1002.8 hPa 6.4 m/s 24.9 mm
19:00 18.1° 1001.8 hPa 5.5 m/s 26.4 mm 18.1° 1001.8 hPa 5.5 m/s 26.4 mm
 05:34     20:41    Daglengte: 15:07 Vrijdag 06 Aug
01:00 12.7° 1002.0 hPa 3.3 m/s 26.8 mm 12.7° 1002.0 hPa 3.3 m/s 26.8 mm
07:00 13.1° 999.4 hPa 2.6 m/s 26.8 mm 13.1° 999.4 hPa 2.6 m/s 26.8 mm
13:00 14.5° 996.5 hPa 4.2 m/s 29.9 mm 14.5° 996.5 hPa 4.2 m/s 29.9 mm
19:00 15.0° 996.1 hPa 1.8 m/s 32.5 mm 15.0° 996.1 hPa 1.8 m/s 32.5 mm
 05:36     20:40    Daglengte: 15:04 Zaterdag 07 Aug
01:00 13.9° 1007.8 hPa 2.7 m/s 0.8 mm
07:00 13.4° 1007.9 hPa 3.0 m/s 0.5 mm
13:00 18.7° 1008.7 hPa 4.1 m/s 1.3 mm
19:00 18.2° 1008.8 hPa 4.1 m/s 1.4 mm
 05:38     20:38    Daglengte: 15:00 Zondag 08 Aug
01:00 13.8° 1009.9 hPa 3.6 m/s 0.7 mm
07:00 13.2° 1009.6 hPa 3.4 m/s 0.4 mm
13:00 19.0° 1010.6 hPa 4.8 m/s 1.3 mm
19:00 18.2° 1011.0 hPa 3.8 m/s 1.7 mm
 05:39     20:36    Daglengte: 14:57 Maandag 09 Aug
01:00 13.9° 1012.8 hPa 3.3 m/s 0.4 mm
07:00 13.5° 1013.1 hPa 2.8 m/s 0.6 mm
13:00 19.5° 1014.4 hPa 3.8 m/s 0.6 mm
19:00 18.2° 1014.8 hPa 2.9 m/s 2.3 mm
 05:41     20:34    Daglengte: 14:53 Dinsdag 10 Aug
01:00 14.1° 1017.0 hPa 2.4 m/s 0.6 mm
07:00 13.3° 1017.8 hPa 2.5 m/s 0.2 mm
13:00 19.2° 1018.7 hPa 3.5 m/s 0.3 mm
19:00 18.8° 1018.5 hPa 3.1 m/s 0.6 mm
 05:42     20:32    Daglengte: 14:50 Woensdag 11 Aug
01:00 14.1° 1019.9 hPa 2.6 m/s 0.3 mm
07:00 13.4° 1019.5 hPa 2.4 m/s 0.1 mm
13:00 20.3° 1019.1 hPa 3.1 m/s 0.2 mm
19:00 19.5° 1017.8 hPa 2.8 m/s 0.8 mm
 05:44     20:30    Daglengte: 14:46 Donderdag 12 Aug
01:00 15.3° 1018.0 hPa 2.5 m/s 0.6 mm
FMI Hirlam - 7.5 km EWN WRFDA - 12 km DWD ICON - 7 km GFS - 25 km Basiskaart






























































Updatetijd (Europe/Amsterdam) Resolutie Lengte Stap
FMI Hirlam 01:45, 07:45, 13:45, 19:45 7.5 km 49h 1h
EWN WRFDA 05:30, 11:30, 17:30, 23:30 12 km 73h 1h
DWD ICON 06:00, 12:00, 18:00, 00:00 7 km 75h 1h
GFS 02:15, 08:15, 14:15, 20:15 25 km 237h 3h
30+ mm
25-30 mm
20-25 mm
15-20 mm
10-15 mm
6-10 mm
4-6 mm
2-4 mm
1-2 mm
0.5-1 mm
0.2-0.5 mm
0.1-0.2 mm
30+ mm
25-30 mm
20-25 mm
15-20 mm
10-15 mm
6-10 mm
4-6 mm
2-4 mm
1-2 mm
0.5-1 mm
0.2-0.5 mm
0.1-0.2 mm
Sneeuwval
Natte sneeuw
Hagel
Vorst
30+ mm
25-30 mm
20-25 mm
15-20 mm
10-15 mm
6-10 mm
4-6 mm
2-4 mm
1-2 mm
0.5-1 mm
0.2-0.5 mm
0.1-0.2 mm
Sneeuwval
Natte sneeuw
Hagel
Vorst
Onweer
50 mm
40 mm
30 mm
26 mm
22 mm
18 mm
14 mm
10 mm
9 mm
8 mm
7 mm
6 mm
5 mm
4.5 mm
4 mm
3.5 mm
3 mm
2.5 mm
2 mm
1.5 mm
1 mm
0.8 mm
0.6 mm
0.4 mm
0.2 mm
0.05 mm
35°
30°
25°
20°
15°
10°
-5°
-10°
-15°
-20°
-25°
-30°
-35°
33> m/s
29 m/s
25 m/s
21 m/s
17 m/s
14 m/s
11 m/s
8 m/s
5 m/s
3 m/s
0 m/s
2600 J/kg
2400 J/kg
2200 J/kg
2000 J/kg
1800 J/kg
1600 J/kg
1400 J/kg
1200 J/kg
1000 J/kg
800 J/kg
600 J/kg
400 J/kg
200 J/kg
70 dBZ
65 dBZ
60 dBZ
55 dBZ
50 dBZ
45 dBZ
40 dBZ
35 dBZ
30 dBZ
25 dBZ
20 dBZ
15 dBZ
10 dBZ
5 dBZ
-1 K
-2 K
-3 K
-4 K
-5 K
-6 K
-7 K
-8 K
-9 K
950 m²/s²
900 m²/s²
850 m²/s²
800 m²/s²
750 m²/s²
700 m²/s²
650 m²/s²
600 m²/s²
550 m²/s²
500 m²/s²
450 m²/s²
400 m²/s²
350 m²/s²
300 m²/s²
250 m²/s²
200 m²/s²
150 m²/s²
100 m²/s²
46 m/s
44 m/s
42 m/s
40 m/s
38 m/s
36 m/s
34 m/s
32 m/s
30 m/s
28 m/s
26 m/s
24 m/s
22 m/s
20 m/s
16 m/s
12 m/s
8 m/s
4 m/s
30 m/s
28 m/s
26 m/s
24 m/s
22 m/s
20 m/s
18 m/s
16 m/s
14 m/s
12 m/s
10 m/s
8 m/s
6 m/s
4 m/s
2 m/s
3.0
2.8
2.6
2.4
2.2
2.0
1.8
1.6
1.4
1.2
1.0
0.8
0.6
0.4
0.2
15
14
13
12
11
10
9
8
7
6
5
4
3
2
1
90%
80%
70%
60%
50%
40%
30%
20%
10%
42
40
38
36
34
32
30
28
26
24
22
20
18
16
14
12
90+ cm
80-90 cm
70-80 cm
60-70 cm
50-60 cm
40-50 cm
30-40 cm
20-30 cm
10-20 cm
1-10 cm
Sneeuwval
Natte sneeuw
Regen
>120 mm
115 mm
110 mm
105 mm
100 mm
95 mm
90 mm
85 mm
80 mm
75 mm
70 mm
65 mm
60 mm
55 mm
50 mm
45 mm
45 mm
40 mm
35 mm
30 mm
25 mm
20 mm
15 mm
10 mm
5 mm
0.1 mm
960 hPa
880 hPa
800 hPa
720 hPa
640 hPa
560 hPa
584 gpdm
568 gpdm
552 gpdm
536 gpdm
520 gpdm
504 gpdm
488 gpdm
Extreem zwaar Noodweer Kans op onweer
15% 15% 5% 50% 15%

Dag




Kaart






35°
30°
25°
20°
15°
10°
-5°
-10°
-15°
-20°
-25°